Location: Henau
(47.4548°N, 9.1164°E)
Time: 03:41:14
(UTC+00:00)

Cosmos 2074 Rocket - Pass Details

Date: 03 March 2021
Orbit: 967 x 987 km, 82.9° (Epoch: 16 April)

Event Time Altitude Azimuth Distance (km) Brightness Sun altitude
Rises 17:33:34 0° 177° (S) 3,676 7.0 -4.5°
Reaches altitude 10° 17:36:05 10° 175° (S) 2,730 6.4 -4.9°
Maximum altitude 17:42:16 67° 94° (E) 1,059 4.0 -6.0°
Drops below altitude 10° 17:48:29 10° 14° (NNE) 2,735 6.2 -7.0°
Sets 17:51:00 0° 12° (NNE) 3,684 6.9 -7.4°
